This is the latest recevied weather packets stored in our database for station/object DM4XI-13. If no packets are shown the sender has not sent any weather packets the latest 10 day(s).
| Time | Temp. | Humidity | Pressure | Rain* | Wind** | Luminosity | Snow |
|---|---|---|---|---|---|---|---|
| 1777978005 | 25° C | 38% | 1005 hPa | 0 mm | 0.45 m/s, 196° | 660 W/m² | - |
| 1777977944 | 25° C | 38% | 1005 hPa | 0 mm | 0.45 m/s, 170° | 661 W/m² | - |
| 1777977883 | 25° C | 37% | 1005 hPa | 0 mm | 0.45 m/s, 180° | 660 W/m² | - |
| 1777977822 | 25.56° C | 37% | 1005.1 hPa | 0 mm | 0.89 m/s, 198° | 660 W/m² | - |
| 1777977762 | 25.56° C | 37% | 1005.1 hPa | 0 mm | 0.89 m/s, 153° | 665 W/m² | - |
| 1777977701 | 25.56° C | 37% | 1005.1 hPa | 0 mm | 0.89 m/s, 158° | 669 W/m² | - |
| 1777977639 | 25° C | 38% | 1005 hPa | 0 mm | 0 m/s | 669 W/m² | - |
| 1777977578 | 24.44° C | 39% | 1005 hPa | 0 mm | 0 m/s | 666 W/m² | - |
| 1777977517 | 24.44° C | 39% | 1005.2 hPa | 0 mm | 0.45 m/s, 101° | 671 W/m² | - |
| 1777977456 | 23.89° C | 40% | 1005.2 hPa | 0 mm | 0.45 m/s, 207° | 694 W/m² | - |
| 1777977395 | 23.89° C | 41% | 1005 hPa | 0 mm | 0 m/s | 698 W/m² | - |
| 1777977334 | 23.89° C | 39% | 1005.1 hPa | 0 mm | 0.89 m/s, 192° | 719 W/m² | - |
| 1777977273 | 23.89° C | 39% | 1005.1 hPa | 0 mm | 0.89 m/s, 193° | 620 W/m² | - |
| 1777977212 | 24.44° C | 41% | 1005.2 hPa | 0 mm | 0.89 m/s, 171° | 523 W/m² | - |
| 1777977151 | 24.44° C | 39% | 1005.3 hPa | 0 mm | 0.89 m/s, 196° | 601 W/m² | - |
| 1777977091 | 25° C | 38% | 1005.3 hPa | 0 mm | 0.89 m/s, 170° | 550 W/m² | - |
| 1777977029 | 25° C | 38% | 1005.3 hPa | 0 mm | 0 m/s | 391 W/m² | - |
| 1777976968 | 25° C | 37% | 1005.1 hPa | 0 mm | 0.89 m/s, 180° | 416 W/m² | - |
| 1777976908 | 25° C | 37% | 1005.2 hPa | 0 mm | 0.45 m/s, 210° | 357 W/m² | - |
| 1777976847 | 25° C | 39% | 1005.1 hPa | 0 mm | 0 m/s | 236 W/m² | - |
| 1777976785 | 25° C | 38% | 1005.2 hPa | 0 mm | 0.45 m/s, 209° | 227 W/m² | - |
| 1777976724 | 25° C | 38% | 1005 hPa | 0 mm | 0.89 m/s, 289° | 232 W/m² | - |
| 1777976663 | 25.56° C | 38% | 1005.2 hPa | 0 mm | 0.45 m/s, 282° | 256 W/m² | - |
| 1777976602 | 25.56° C | 38% | 1005.1 hPa | 0 mm | 0 m/s | 331 W/m² | - |
| 1777976541 | 25.56° C | 37% | 1005.1 hPa | 0 mm | 0.89 m/s, 301° | 429 W/m² | - |
* Rain latest hour (hover to see other rain measurements)
** Current wind speed in m/s (hover to see current wind gust speed)